{"data":{"norad_id":41851,"epoch":"2026-09-20T01:11:10.402080Z","epoch_age_seconds":53392,"freshness":"FRESH","line1":"1 41851U 16067D   26263.04942595  .00001151  00000+0  75086-4 0  9993","line2":"2 41851  98.0576 120.2545 0016010 151.9131 208.2964 15.09986355539485","mean_motion":15.09986355,"eccentricity":0.001601,"inclination_deg":98.0576,"raan_deg":120.2545,"arg_perigee_deg":151.9131,"mean_anomaly_deg":208.2964,"bstar":7.5086e-5,"rev_number":53948,"period_min":95.365100170061,"perigee_km":525.17173707213,"apogee_km":547.31157753281,"semimajor_km":6914.3786573025,"source":"CELESTRAK","updated_at":"2026-09-20T09:00:48.031643Z"}}